LUCH DEB, 44582

Orbit data source: Space-Track

LUCH DEB, 44582 is space debris in GEO originally from a launch on Fri, 16 Dec 1994 UTC launched from the Tyuratam Missile And Space Complex (TTMTR). Debris objects in space refer to the collection of defunct objects orbiting the Earth. Examples of debris include non-operational satellites, rocket bodies, and fragments generated from explosions, collisions, or faulty payload assembly.

Not visible in the next 10 days
LUCH DEB details
Identifier
44582, 1994-082G
Orbit
GEO
Last TLE update17 hours ago
Origin
Flag of CISVKS (CIS)
ManufacturerUnknown
MissionSpacecraft
Bus & MotorUnknown
MassUnknown
Launch date (UTC)
1994-12-16 (30 years ago)
Launch vehicleUnknown
Launch site
Tyuratam Missile And Space Complex (TTMTR)
Object type
Payload
Rocket body
Debris
Shape & HBRUnknown
Radar Cross SectionSmall (<0.1 m²)

Expand to show TLE details & history

TLE from 17 hours ago
0 LUCH DEB
1 44582U 94082G   24325.72283993 -.00000319  00000-0  00000-0 0  9999
2 44582  14.6565 358.5062 0016095 102.6004 309.3815  1.00701351 40477
Epoch: 2024-11-20T17:20Z
Definitive object data (Epoch: 2024-11-20T17:20:53.369Z)
Latitude11.49271°
Longitude88.97519°
Altitude35,622.363 km
Speed3.082 km/s
True Right ascension03h 17m 38s
True Declination11° 28' 53"
Sunlit
Object was in daylight at TLE epoch
Visualization TLE readout
Latitude-11.22507°
Longitude-11.23594°
Altitude35,728.551 km
Speed3.075 km/s
Apparent Right ascension20h 29m 37s
Apparent Declination-14° 55' 15"
Sunlit
Object is in daylight
Visualization observer readout
Local Sidereal Time07:28:22
Azimuth327.498° NNW
Elevation-61.646°
Doppler factor1
Orbital elements
Apogee altitude35,735.246 km
Perigee altitude35,599.9 km
Semi-major axis42,045.71 km
Eccentricity0.0016095
Inclination14.6565°
RAAN358.5062°
Arg. of periapsis102.6004°
True anomaly309.23876°
Mean anomaly309.3815°
Eccentric anomaly309.31015°
Mean motion0.25174 °/min
BSTARUnknown
Orbital period1430.02 mins
Loading historical data...
44582 neighbors
Authenticating...
Loading maneuver chart data...
Loading historical data...
Loading historical data...
Loading historical data...
Loading historical data...
Loading historical data...
Loading historical data...
Loading historical data...

LUCH DEB Visibility forecast

Observer location: undefined°, undefined

LUCH DEB is not visible in the next 10 days
Span
Click to sort rows by Start time (UTC) header in descending order
Start Az.
Max El. time (UTC)
Max El. Az.
Max El.
End time (UTC)
End Az.
|